Regional Weather Roundup
Issued by NWS

Home | Current Version | Previous Version | Graphics & Text | Print | Product List | Glossary On
Versions: 1 2 3 4 5 6 7 8 9 10 11 12 13 14 15 16 17 18 19 20 21 22 23 24 25 26 27 28 29 30 31 32 33 34 35 36 37 38 39 40 41 42 43 44 45 46 47 48 49 50
000
ASUS43 KIND 151409
RWRIN

WEATHER ROUNDUP FOR INDIANA
NATIONAL WEATHER SERVICE INDIANAPOLIS IN
900 AM EST MON JAN 15 2018

NOTE: "FAIR" INDICATES FEW OR NO CLOUDS BELOW 12,000 FEET WITH NO
SIGNIFICANT WEATHER AND/OR OBSTRUCTIONS TO VISIBILITY.

* - STATION DOES NOT REPORT WEATHER SUCH AS PRECIPITATION OR FOG.

+ - STATION NOT QUALITY CONTROLLED BY THE NATIONAL WEATHER SERVICE.
    USE DATA WITH CAUTION...ESPECIALLY DEWPOINT AND RELATIVE
    HUMIDITY OBSERVATIONS.

INZ001>003-010>013-019-020-151500-
NORTHWEST INDIANA

CITY           SKY/WX    TMP DP  RH WIND       PRES   REMARKS
GARY /AIRPORT/ LGT SNOW  19  16  86 SE14      30.16F WCI   6
KNOX *+        CLOUDY    19  14  79 SE10      30.18F WCI   8
LA PORTE +     LGT SNOW  17  14  88 SE9       30.18F WCI   5
MICHIGAN CITY+ LGT SNOW  18  14  86 SE6       30.19S WCI   9
MONTICELLO +   FLURRIES  19  15  85 S7        30.19S WCI  10
RENSSELAER +   LGT SNOW  21  16  79 SE12      30.18S WCI   9
VALPARAISO     LGT SNOW  19  15  84 SE9       30.17S FOG     WCI   8

$$

LMZ046-743>745-151500-
SOUTHERN LAKE MICHIGAN

STATION/POSITION TIME  TEMP    WIND        PRES    WAVE
                       AIR SEA DIR/SP/G            HT
                 (UTC) (F)     (DEG/KT/KT) (MB)    (FT)
BURNS HARBOR     1340   18     160/ 12/ 20 1022.0F
MICHIGAN CITY    1340          130/ 15/ 17   N/A

$$

INZ004-005-014>016-021>024-151500-
NORTH CENTRAL INDIANA

CITY           SKY/WX    TMP DP  RH WIND       PRES   REMARKS
ELKHART        LGT SNOW  18  12  79 SE8       30.21F WCI   7
GOSHEN         LGT SNOW  17  13  84 SE12      30.21S FOG     WCI   4
LOGANSPORT +   FLURRIES  19  16  86 S8        30.21S WCI   9
PERU/GRISSOM   CLOUDY    19  18  93 S10       30.19S WCI   8
ROCHESTER +    LGT SNOW  21  18  86 SE7       30.20F WCI  13
SOUTH BEND     LGT SNOW  16  13  88 SE9       30.20F FOG     WCI   4
WARSAW +       LGT SNOW  18  14  86 SE8       30.21F VSB 1   WCI   7

$$

INZ006>009-017-018-025>027-151500-
NORTHEAST INDIANA

CITY           SKY/WX    TMP DP  RH WIND       PRES   REMARKS
AUBURN +       LGT SNOW  18  14  86 SE6       30.25S VSB 3/4 WCI   9
FORT WAYNE     LGT SNOW  18  15  88 SE8       30.24F FOG     WCI   8
HUNTINGTON +   LGT SNOW  17  15  90 SE6       30.22F WCI   9
KENDALLVILLE + LGT SNOW  16  13  89 SE8       30.23S VSB 1   WCI   5

$$

INZ028-029-035-036-043>045-051>053-151500-
WEST CENTRAL INDIANA

CITY           SKY/WX    TMP DP  RH WIND       PRES   REMARKS
CRAWFORDSVL +  CLOUDY    19  17  92 MISG        N/A
GREENCASTLE +  LGT SNOW  21  18  86 S6        30.21S WCI  14
LAFAYETTE      CLOUDY    20  17  88 S9        30.20R WCI   9
TERRE HAUTE    LGT SNOW  21  18  88 S7        30.22S VSB 3/4 WCI  12

$$

INZ030>032-037>040-046>048-054>057-064-065-151500-
CENTRAL INDIANA

CITY           SKY/WX    TMP DP  RH WIND       PRES   REMARKS
COLUMBUS       CLOUDY    19  16  86 S10       30.27S WCI   8
FISHERS *+     CLOUDY    18  18 100 S10       30.22S WCI   6
FRANKFORT +    CLOUDY    22  18  85 S12       30.21R WCI  11
GREENWOOD *+   CLOUDY    21  17  84 S12       30.23S VSB 1   WCI   9
INDIANAPOLIS   LGT SNOW  20  17  88 S10       30.22S FOG     WCI   9
-EAGLE CREEK   FLURRIES  19  16  88 S6        30.21S WCI  11
KOKOMO +       FLURRIES  19  16  86 S14       30.21S WCI   6
MARION +       LGT SNOW  19  16  90 CALM      30.22S
MT COMFORT *+  CLOUDY    19  19 100 S10G17    30.21S WCI   8
SHELBYVILLE    CLOUDY    22  15  75 S14       30.23F WCI   9
ZIONSVILLE +   CLOUDY    18  15  89 S9        30.21R WCI   7

$$

INZ033-034-041-042-049-050-058-059-151500-
EAST CENTRAL INDIANA

CITY           SKY/WX    TMP DP  RH WIND       PRES   REMARKS
MUNCIE         LGT SNOW  21  15  78 S12       30.21F WCI   9
RICHMOND +     LGT SNOW  18  18 100 S10       30.25S WCI   6

$$

INZ060-061-067>069-081>083-085>088-151500-
SOUTHWEST INDIANA

CITY           SKY/WX    TMP DP  RH WIND       PRES   REMARKS
EVANSVILLE     LGT SNOW  25  20  81 SW16      30.28F WCI  12
HUNTINGBURG +  FLURRIES  25  19  78 S13       30.28R WCI  14
WASHINGTON +   LGT SNOW  22  20  92 S13       30.25S VSB 3/4 WCI  10

$$

INZ062-063-066-070>080-084-089>092-151500-
SOUTH CENTRAL AND SOUTHEAST INDIANA

CITY           SKY/WX    TMP DP  RH WIND       PRES   REMARKS
BATESVILLE *+    N/A    N/A N/A N/A MISG        N/A
BLOOMINGTON    SNOW      20  18  92 S6        30.22S VSB 1/2 WCI  12
MADISON *+     CLOUDY    25  18  74 S6        30.29S WCI  18
NORTH VERNON + CLOUDY    21  14  73 S7        30.27F WCI  13
SEYMOUR +      MOCLDY    23  16  74 S9        30.28S WCI  13

$$





USA.gov is the U.S. government's official web portal to all federal, state and local government web resources and services.